Location: Molalla
(45.1473°N, 122.5770°W)
Time: 15:23:03
(UTC-08:00)

Transit 4A - Visible Passes

Search period start: 13 November 2019 00:00
Search period end: 23 November 2019 00:00
Orbit: 868 x 976 km, 66.8° (Epoch: 13 November)

Date Brightness Start Highest point End Pass type
(mag) Time Alt. Az. Time Alt. Az. Time Alt. Az.
13 Nov 10.2 05:03:02 10° N 05:04:25 11° NNE 05:05:47 10° NNE visible
14 Nov 10.1 05:11:45 10° N 05:14:22 13° NNE 05:16:57 10° NE visible
15 Nov 10.1 05:20:43 10° N 05:24:15 16° NNE 05:27:43 10° ENE visible
16 Nov 9.9 05:29:47 10° NNW 05:34:02 20° NE 05:38:14 10° E visible
17 Nov 9.6 05:38:53 10° NNW 05:43:45 25° NE 05:48:33 10° E visible
18 Nov 10.3 04:03:10 10° N 04:05:01 11° NNE 04:06:51 10° NE visible
18 Nov 9.2 05:48:02 10° NNW 05:53:23 33° NE 05:58:37 10° ESE visible
19 Nov 10.2 04:12:27 11° N 04:14:56 14° NNE 04:17:51 10° NE visible
19 Nov 8.7 05:57:15 10° NNW 06:02:56 45° NE 06:08:29 10° ESE visible
20 Nov 10.0 04:21:47 12° N 04:24:47 17° NNE 04:28:31 10° ENE visible
20 Nov 8.2 06:06:29 10° NNW 06:12:23 63° NE 06:18:08 10° SE visible
21 Nov 9.8 04:31:12 14° N 04:34:33 22° NE 04:38:58 10° E visible
21 Nov 7.8 06:15:49 10° NNW 06:21:46 89° ENE 06:27:34 10° SSE visible
22 Nov 9.4 04:40:39 16° N 04:44:14 28° NE 04:49:12 10° E visible
22 Nov 7.9 06:25:13 10° NW 06:31:03 64° WSW 06:36:46 10° SSE visible
